Vorticity
11 10 10 10 10 9 9 8 8 7 7 7 7 8 8 9 10 10 11 12 12 13 14 14 16 17 19 22 24 25 26 25 23 21 19 18 16 15 14 13 12 12 11 11 11 12 12 13 13 14 14 14 14 15 15 15 15 15 15 14 14 13 13 13 12 12 12 12 12 13 13 14 14 15 16 16 16 17 18 17 17 17 18 19 19 19
8 8 7 7 7 7 7 7 7 7 7 8 9 10 10 11 12 13 15 16 17 17 17 18 19 20 23 25 26 25 24 22 19 17 15 13 12 11 10 9 9 9 9 9 9 10 10 10 11 11 11 12 12 12 12 12 12 12 12 12 12 11 11 10 10 10 9 9 9 10 10 11 12 12 12 13 14 15 16 14 13 12 14 16 18 20
6 6 6 6 6 6 6 7 8 9 10 11 12 12 13 14 15 16 16 17 19 20 21 20 21 22 24 24 24 22 20 16 14 11 10 9 8 8 7 8 8 8 8 9 9 10 10 11 11 11 11 11 11 11 10 10 10 10 10 9 9 9 9 8 8 8 8 7 7 8 8 9 9 10 10 10 12 13 13 12 12 12 13 15 17 19
5 5 6 6 6 7 7 9 10 12 13 14 15 16 17 18 18 18 18 17 18 20 22 22 22 22 22 21 20 17 14 11 9 8 7 7 7 8 8 9 9 10 10 11 11 12 12 13 13 13 13 13 13 12 12 11 10 10 9 9 8 8 8 8 7 7 7 7 7 7 7 7 8 8 8 9 10 11 12 12 12 12 14 15 16 18
7 7 7 8 9 9 11 12 14 15 16 18 19 20 20 20 20 19 20 21 22 22 21 21 20 20 18 17 14 12 10 8 8 8 8 9 10 10 11 12 12 13 13 13 13 14 14 14 14 15 15 15 15 15 14 14 13 12 12 11 10 9 9 8 8 7 7 7 7 7 7 7 8 8 8 9 10 10 11 11 12 13 14 15 15 16
9 10 10 11 12 12 13 15 17 18 19 22 22 22 21 21 21 20 22 22 22 21 20 19 18 16 15 13 11 9 8 8 9 10 10 12 13 13 14 14 14 14 14 14 14 14 14 14 14 14 15 15 16 16 17 17 16 16 15 14 13 12 11 10 9 8 8 8 7 7 8 8 8 8 8 8 9 10 10 11 12 13 13 14 14 14
12 12 13 14 14 15 16 19 21 22 22 21 21 21 21 22 22 22 22 21 20 19 18 17 16 14 12 11 10 9 9 10 10 11 13 13 14 14 14 14 14 14 13 13 13 12 12 12 12 13 13 14 15 16 16 17 18 18 17 16 15 14 13 12 11 10 10 9 9 9 8 8 8 8 8 8 8 9 9 10 10 11 12 13 14 15
13 14 15 16 16 17 19 22 25 26 24 20 18 18 19 21 22 22 20 19 18 17 16 15 14 13 11 11 10 10 11 11 12 12 13 13 14 14 14 13 13 13 12 12 12 11 11 11 11 12 12 12 13 14 14 16 16 17 17 17 16 16 14 14 13 12 11 10 10 10 9 9 9 8 8 8 8 8 9 9 10 12 13 14 15 16
14 15 17 18 19 20 20 23 26 27 24 22 20 18 18 19 19 18 17 15 14 13 14 14 14 13 12 12 12 12 13 13 13 13 13 13 13 13 13 13 13 12 12 12 12 12 12 12 12 12 12 12 12 12 13 13 14 15 15 16 15 15 14 14 13 12 12 11 11 10 10 9 8 8 8 8 8 9 10 11 13 14 15 16 16 17
17 18 18 21 24 25 24 26 26 26 24 23 22 20 19 18 17 16 14 12 9 8 10 12 14 14 14 13 13 14 15 15 15 15 15 15 15 14 14 14 13 13 13 13 13 13 13 13 13 13 13 13 12 12 12 12 12 12 13 13 13 13 13 12 12 12 11 11 10 10 9 9 9 9 9 10 11 12 14 14 15 16 16 17 17 18
19 21 22 24 26 28 31 30 28 24 22 21 20 19 16 12 12 12 13 12 8 5 6 9 12 14 16 16 15 16 16 16 16 16 16 16 16 16 15 14 13 13 12 12 12 13 13 13 14 14 14 13 13 13 13 12 12 12 12 11 11 11 11 11 11 11 10 10 10 10 10 10 11 12 13 14 15 16 17 17 16 16 16 17 17 18
20 22 24 25 25 25 25 24 21 19 18 18 17 14 9 3 2 4 9 11 10 7 6 9 11 13 15 16 17 17 17 17 17 17 16 16 16 15 14 14 13 13 12 12 12 12 13 13 13 14 14 14 14 14 13 13 13 12 12 12 12 11 11 11 11 11 11 12 12 12 13 14 15 16 18 18 18 18 17 16 16 15 15 16 16 17
21 22 23 22 21 18 15 13 11 10 8 8 9 9 7 3 -0 -1 3 6 6 6 8 11 13 13 14 16 17 17 17 17 16 16 16 15 15 14 13 13 13 12 12 12 13 13 13 14 14 14 14 14 14 14 13 13 13 13 13 13 13 13 13 13 14 14 14 14 15 16 17 18 19 19 18 18 17 15 14 14 13 14 14 14 15 16
20 19 18 18 14 10 6 4 4 4 3 3 3 3 4 2 0 0 3 3 4 5 8 11 13 15 16 16 16 16 16 16 15 15 15 16 15 14 13 13 12 12 11 12 13 13 13 14 14 15 15 14 14 14 13 13 13 14 14 14 15 15 15 16 16 16 17 17 18 18 19 18 18 17 16 14 13 13 12 12 12 13 13 14 14 15
15 14 13 11 7 3 -1 -1 -0 1 2 2 2 2 2 2 3 5 7 8 9 10 12 13 14 16 16 14 13 13 12 13 13 14 14 15 15 14 14 13 13 13 13 13 13 13 13 13 14 14 14 14 14 13 13 12 12 13 13 14 14 15 15 16 17 17 18 18 18 17 17 16 14 13 12 12 12 12 12 12 12 13 13 14 14 15
10 10 8 4 0 -3 -4 -2 0 2 2 2 2 2 3 4 6 8 10 12 13 14 14 14 14 14 13 9 7 7 8 9 10 11 12 13 13 12 11 12 12 12 12 13 12 11 10 11 12 12 13 13 12 12 11 11 11 11 11 12 12 13 13 14 15 15 15 15 15 14 13 13 12 11 11 11 12 12 12 13 13 13 14 14 15 15
7 7 5 -0 -3 -3 -0 2 4 5 6 5 5 5 6 6 7 9 10 12 13 13 12 10 10 11 11 6 1 -1 1 4 6 7 9 9 9 7 6 7 8 9 10 10 10 10 9 9 9 10 10 10 10 9 9 10 10 10 10 10 11 11 12 12 13 13 13 13 13 12 12 11 10 10 10 11 11 12 12 13 13 13 14 14 15 16
6 4 1 -2 -1 2 5 5 6 7 8 10 11 11 11 11 10 9 9 10 10 9 7 4 4 6 9 6 0 -3 -2 -0 2 4 5 5 4 4 2 3 4 5 6 6 6 7 8 8 9 9 9 8 8 7 7 7 8 8 9 10 10 10 11 11 11 12 12 12 12 11 10 10 10 9 9 10 10 11 11 12 12 13 13 14 15 16
3 -0 -4 -2 2 4 3 2 1 2 3 5 8 10 13 14 13 12 10 9 7 4 1 -1 -1 1 4 4 2 -0 -1 -1 1 2 1 2 2 2 2 2 3 4 4 3 3 3 5 7 9 11 11 10 9 8 7 7 7 7 8 8 9 10 10 11 11 11 11 11 11 10 10 9 8 8 8 8 9 10 10 11 12 12 13 14 14 16
-2 -5 -5 -0 2 2 1 -0 -2 -2 -2 -1 1 3 6 10 11 12 10 8 5 2 0 -1 -1 -1 0 2 2 1 -0 -0 -1 -2 -2 0 2 3 3 3 3 4 3 2 1 1 2 5 8 10 12 12 11 10 8 7 7 7 7 7 8 9 10 10 11 11 11 11 10 10 9 8 7 7 7 7 8 9 10 10 11 12 12 13 14 15
-2 -3 0 2 3 3 3 1 -1 -2 -2 -1 -1 0 2 4 6 7 7 6 5 3 2 1 1 2 2 3 3 2 1 -1 -4 -5 -4 -2 1 4 4 3 3 2 2 2 1 1 2 4 6 9 11 12 13 12 11 10 8 7 7 7 7 8 9 9 10 10 11 10 10 9 8 7 7 7 6 7 8 9 10 10 11 12 12 13 14 14
-1 1 5 7 8 9 10 8 6 4 -0 -2 -2 -1 1 3 4 5 6 5 5 5 4 4 4 4 5 5 4 2 -1 -4 -5 -5 -4 -1 3 6 6 4 3 2 1 1 1 2 3 5 6 7 8 10 12 13 13 12 10 9 7 7 7 7 7 8 9 9 10 9 9 9 8 8 7 7 7 7 8 9 10 10 11 12 12 13 13 14
-2 4 10 10 11 13 16 17 15 11 5 0 -1 0 3 5 6 8 8 8 9 10 10 9 7 5 4 4 3 2 0 -1 -1 -0 3 9 12 12 8 4 2 2 2 1 1 2 4 5 6 6 6 7 9 11 13 13 13 11 9 8 7 7 6 7 7 7 8 8 8 8 8 8 8 8 8 8 8 9 9 10 11 12 12 13 13 14
-1 4 8 7 6 7 12 16 18 18 14 10 8 8 10 10 12 12 12 12 13 15 16 15 13 11 10 8 7 6 6 4 3 5 13 26 30 25 14 6 2 1 2 1 1 2 5 6 6 6 5 5 6 8 11 13 13 13 11 10 8 7 7 6 6 6 6 7 7 8 8 8 9 9 9 9 9 9 9 10 10 11 12 13 13 14
7 11 12 10 8 8 10 11 13 14 15 14 13 12 12 13 13 13 14 16 17 18 18 17 16 14 14 14 14 13 10 5 3 6 17 30 32 27 14 6 2 1 1 0 1 2 5 7 7 6 5 3 3 4 7 10 12 13 13 12 11 9 8 7 6 5 5 6 6 7 7 8 9 10 10 11 10 10 9 9 10 11 12 12 13 14
10 14 14 13 13 14 14 12 10 9 9 9 10 10 10 9 8 8 9 10 10 10 9 9 10 10 13 15 16 15 11 6 3 5 13 20 20 15 7 3 1 1 1 1 2 4 6 7 8 7 6 3 1 2 4 7 10 13 14 14 13 12 10 8 7 6 5 5 5 6 6 8 9 10 12 12 12 11 10 9 10 10 12 12 13 14
-1 2 6 9 12 14 16 14 13 13 13 12 12 11 10 9 8 8 8 6 3 0 0 2 5 9 13 15 16 15 12 8 6 6 10 11 9 5 1 0 1 1 2 2 4 6 7 8 8 7 6 4 2 1 2 6 9 12 14 15 14 14 13 11 9 8 6 6 5 5 6 7 9 10 12 13 12 11 10 10 10 11 12 12 13 14
-8 -5 -1 4 8 10 12 13 14 14 14 13 12 11 10 10 10 11 10 7 5 3 2 1 2 5 8 10 11 11 10 8 7 7 7 7 5 2 -0 -0 0 0 0 2 5 7 7 7 7 7 7 5 3 2 3 5 7 9 11 13 14 15 15 14 12 10 8 6 5 5 6 7 9 11 12 13 13 12 11 10 11 12 13 13 14 14
-10 -9 -7 -3 0 4 7 9 10 11 12 11 10 9 8 9 10 11 11 9 9 8 7 5 4 4 5 7 8 9 9 7 6 6 4 3 2 1 -0 -1 -1 -0 1 4 6 7 6 6 6 7 7 6 4 3 3 4 4 5 7 9 12 14 16 16 14 12 10 7 6 5 6 7 9 10 12 13 13 13 12 12 12 13 13 14 14 14
-7 -7 -7 -8 -7 -5 -1 1 3 4 6 6 6 6 6 7 8 10 10 10 11 11 11 9 8 7 7 8 10 10 9 8 7 6 5 4 4 4 2 2 2 2 3 6 8 9 8 7 7 7 7 6 4 2 1 1 0 1 3 6 10 14 17 17 16 13 11 8 6 6 6 7 9 10 12 13 13 13 12 12 13 14 14 14 14 14
3 3 2 -3 -7 -9 -9 -7 -6 -4 -3 -1 1 2 3 4 4 6 7 8 9 10 10 10 9 8 7 7 9 9 8 8 7 6 6 6 6 7 6 5 5 5 4 6 8 10 12 10 8 7 7 6 4 1 -0 -2 -2 -1 1 5 10 14 18 18 16 14 12 9 7 7 7 8 9 10 12 13 13 13 13 13 14 14 14 14 14 14
10 9 8 3 -2 -6 -8 -8 -9 -9 -9 -7 -6 -4 -2 -1 0 1 2 3 4 5 7 8 8 8 7 6 6 7 6 7 6 6 5 6 6 6 6 6 6 5 4 5 6 9 13 13 12 10 7 6 4 2 1 0 0 0 2 5 10 15 18 18 16 15 13 11 9 8 8 8 10 11 12 13 14 14 13 14 14 14 14 14 14 15
12 12 12 9 6 3 1 -0 -2 -3 -4 -5 -5 -5 -5 -4 -3 -2 -1 -0 0 1 2 4 5 6 6 5 5 6 5 6 6 6 5 6 6 5 4 5 5 5 5 4 5 6 8 10 12 11 9 7 6 4 4 2 2 2 3 6 11 16 18 17 16 15 13 12 10 9 9 9 10 11 12 13 14 14 14 14 14 14 14 14 14 15
17 18 18 17 16 15 14 13 13 12 11 10 8 6 4 3 2 1 1 0 -0 -1 -1 0 2 4 5 4 5 5 4 5 5 5 5 6 5 4 3 4 4 4 4 4 3 3 3 5 7 9 11 9 6 3 1 1 2 3 4 7 12 16 17 16 15 15 14 12 11 10 9 9 10 11 12 13 14 14 14 13 13 13 13 13 14 15
27 28 29 29 28 28 28 28 28 27 27 26 24 23 21 18 16 13 10 7 4 1 -1 -2 -1 1 3 4 4 4 4 4 4 4 4 6 5 3 3 3 2 2 2 2 2 2 2 2 3 5 9 10 7 2 -3 -1 2 4 6 10 15 18 17 16 15 15 14 13 12 10 9 10 10 11 12 13 13 13 13 13 12 12 12 13 14 15
28 30 31 32 33 33 33 32 32 32 32 31 31 30 30 29 27 25 22 17 13 8 4 1 -0 -1 1 2 4 4 3 3 3 3 5 6 5 4 4 2 2 2 2 0 0 1 2 2 3 4 5 8 9 7 1 1 2 6 10 16 20 21 19 17 16 15 14 13 12 10 10 10 10 11 12 12 13 13 12 12 11 11 12 12 13 15
19 19 20 20 21 21 21 22 22 22 22 23 24 25 26 27 28 28 27 25 21 17 13 9 6 4 3 3 4 5 6 5 4 4 6 6 6 6 8 4 4 6 7 3 3 3 5 6 8 9 8 9 11 12 10 9 9 11 17 22 23 21 18 17 16 15 14 12 11 10 10 10 10 11 11 12 12 11 10 10 10 10 11 12 14 15
10 9 9 9 9 9 10 11 12 12 13 14 15 16 18 19 21 22 23 24 22 21 18 16 14 12 10 9 8 8 9 8 8 9 9 10 11 11 11 9 10 12 13 11 10 10 11 12 13 13 12 13 14 14 13 12 14 19 26 27 24 20 17 15 15 14 13 12 11 10 10 10 10 10 10 10 10 10 9 9 9 9 10 12 13 15
6 6 6 6 8 9 11 12 13 14 15 15 16 16 16 17 17 18 18 19 20 20 20 20 19 18 17 16 16 15 16 16 17 18 19 20 21 21 20 19 20 20 22 22 21 20 21 21 20 18 14 13 13 14 13 16 21 27 31 28 24 19 16 14 14 13 13 12 11 11 10 10 9 9 9 10 9 9 9 8 8 9 10 12 13 14
5 6 7 9 12 14 16 18 19 20 20 21 21 22 22 22 22 23 23 23 24 24 25 25 25 25 25 25 26 26 27 29 30 32 33 33 33 33 32 31 31 31 32 32 32 31 30 29 28 25 21 16 14 13 15 21 29 33 31 23 16 12 10 11 12 12 12 12 12 11 10 9 9 8 8 8 8 8 8 7 8 8 10 12 13 15
6 8 12 15 18 20 22 24 24 24 25 25 26 27 28 28 28 28 28 29 30 31 31 31 32 33 34 34 36 37 38 38 38 38 37 36 35 35 35 36 36 36 36 37 37 37 36 34 32 29 27 24 22 22 25 32 35 34 25 15 9 6 7 9 10 12 12 12 12 11 10 9 8 7 7 8 7 7 7 7 7 8 10 12 13 14
10 14 18 20 23 25 26 26 26 27 27 28 28 28 28 26 26 25 25 25 26 26 27 27 28 28 30 31 33 34 34 34 33 32 30 30 30 30 30 32 33 34 35 35 34 33 33 33 32 31 31 32 33 34 36 37 33 26 15 9 7 7 8 8 9 11 13 14 13 12 10 8 7 7 7 7 7 7 6 6 7 8 10 12 13 14
16 20 23 26 27 27 26 26 26 26 24 24 24 22 20 19 19 19 20 20 20 21 21 22 22 23 23 24 25 26 27 26 25 24 24 23 23 24 24 25 26 27 27 26 25 24 24 26 28 29 32 34 36 36 36 33 27 20 12 9 9 9 10 9 10 11 13 14 14 13 10 8 7 6 6 6 6 6 6 6 6 7 10 12 13 14
22 25 27 28 27 26 24 24 22 20 17 17 16 15 15 15 16 18 19 20 21 21 21 21 21 21 22 23 23 23 22 22 22 22 22 21 20 20 20 20 20 19 18 18 18 18 18 19 21 23 26 28 28 28 27 24 21 17 13 12 11 10 10 11 13 14 14 15 15 13 10 8 7 6 6 6 6 6 6 6 7 8 10 12 13 14
26 27 28 26 23 21 20 17 15 13 13 13 13 13 13 14 16 18 20 21 21 22 22 21 21 21 22 22 22 22 21 21 21 21 20 19 18 17 16 15 15 14 14 14 14 15 16 17 18 19 20 21 21 20 18 16 14 13 12 12 12 10 8 9 11 13 16 17 16 14 11 8 7 6 6 6 6 6 7 7 7 8 10 12 13 14
27 26 24 20 18 16 15 12 10 9 11 12 13 14 14 15 16 18 20 20 21 20 20 21 22 22 22 22 22 22 21 20 18 17 17 16 15 14 12 12 11 11 11 12 13 15 17 18 18 17 17 18 17 15 11 9 10 10 10 10 10 9 8 9 10 13 17 18 17 14 12 9 7 6 6 6 6 6 7 7 7 8 10 12 13 14
23 21 18 16 14 12 11 10 9 10 11 13 14 15 15 15 16 16 17 18 18 18 19 20 22 22 23 23 23 23 21 19 16 14 13 14 14 13 11 10 9 9 9 10 12 14 17 19 19 18 16 16 14 12 8 6 6 7 7 7 6 5 6 8 11 15 18 18 17 15 12 9 7 6 6 6 6 6 7 7 7 8 10 12 13 14
18 16 15 13 11 10 9 8 9 10 13 14 16 16 16 16 15 14 12 13 14 15 16 18 19 21 22 24 24 23 21 19 16 14 13 13 13 14 13 11 9 8 8 8 10 13 16 18 19 19 18 15 12 8 6 4 4 4 4 3 2 3 5 8 12 16 18 18 17 15 13 10 8 7 6 6 6 6 6 7 7 8 10 12 14 14
16 15 13 10 8 8 8 9 10 11 13 15 16 17 17 16 15 14 12 11 11 12 13 14 15 17 19 21 21 21 20 19 17 16 16 15 15 15 15 15 13 12 11 10 11 12 14 16 19 20 19 16 13 10 6 5 3 2 2 1 2 4 7 11 14 17 19 18 17 15 12 10 8 7 6 6 6 6 6 7 7 9 10 12 14 15
15 13 10 7 7 7 8 9 10 11 13 14 15 16 17 16 16 14 12 10 9 9 9 10 12 13 15 16 17 17 18 18 18 18 19 19 19 19 20 20 19 18 18 16 15 14 14 16 18 20 20 18 16 12 9 7 5 3 3 4 6 8 11 14 17 18 19 19 17 15 12 10 8 7 6 6 6 6 7 7 7 9 10 12 14 15
14 12 9 7 7 7 8 9 9 10 10 11 12 14 16 16 16 15 13 10 8 7 7 8 9 10 12 12 13 13 13 15 16 19 21 24 25 26 26 26 25 24 23 22 20 18 16 17 19 21 21 20 18 15 12 9 8 7 8 10 11 13 15 17 18 20 20 19 17 15 12 10 8 7 6 6 6 6 7 7 8 9 10 12 14 15
Height
2963 2963 2962 2962 2961 2960 2959 2959 2959 2958 2955 2955 2955 2954 2954 2953 2951 2950 2950 2949 2948 2947 2946 2946 2945 2945 2944 2944 2944 2944 2943 2942 2942 2941 2940 2940 2939 2939 2939 2938 2938 2937 2937 2937 2936 2936 2936 2935 2935 2935 2934 2934 2934 2934 2934 2933 2933 2933 2933 2932 2932 2932 2932 2931 2931 2931 2931 2930 2930 2930 2930 2930 2930 2931 2931 2931 2932 2932 2931 2932 2932 2932 2932 2932 2932 2932
2961 2959 2959 2959 2958 2957 2956 2956 2956 2955 2953 2952 2951 2951 2950 2949 2948 2947 2946 2946 2945 2944 2943 2942 2942 2942 2941 2941 2941 2940 2940 2939 2939 2938 2938 2937 2936 2936 2936 2935 2935 2934 2934 2934 2934 2934 2933 2933 2932 2932 2932 2931 2931 2931 2931 2930 2930 2930 2929 2929 2929 2929 2929 2928 2928 2928 2928 2928 2927 2927 2927 2927 2927 2927 2928 2929 2929 2929 2929 2928 2929 2929 2929 2929 2929 2929
2958 2957 2956 2955 2955 2954 2953 2953 2952 2951 2950 2949 2948 2947 2946 2946 2945 2944 2943 2942 2942 2941 2940 2940 2939 2939 2939 2939 2938 2938 2937 2937 2936 2936 2935 2934 2934 2934 2933 2933 2932 2932 2931 2931 2931 2930 2930 2930 2929 2929 2929 2929 2928 2928 2928 2928 2927 2927 2927 2926 2926 2926 2926 2925 2925 2925 2925 2924 2924 2924 2924 2924 2924 2924 2925 2925 2925 2925 2925 2925 2925 2925 2925 2925 2925 2926
2956 2954 2953 2952 2952 2951 2950 2949 2949 2947 2946 2946 2945 2944 2943 2942 2941 2940 2940 2939 2939 2938 2938 2937 2937 2937 2936 2936 2936 2936 2935 2934 2934 2934 2933 2932 2932 2931 2931 2930 2929 2929 2929 2928 2928 2928 2927 2927 2927 2926 2926 2926 2925 2925 2925 2924 2924 2924 2924 2924 2923 2923 2923 2923 2922 2922 2922 2921 2921 2921 2921 2921 2921 2921 2921 2921 2921 2922 2922 2922 2922 2922 2922 2922 2922 2923
2953 2952 2950 2949 2948 2947 2947 2946 2945 2944 2943 2942 2941 2941 2940 2939 2938 2937 2937 2937 2936 2936 2935 2935 2935 2934 2934 2934 2934 2933 2933 2932 2932 2931 2931 2930 2929 2929 2928 2928 2927 2926 2926 2925 2925 2924 2924 2924 2924 2923 2923 2923 2922 2922 2922 2921 2921 2921 2921 2921 2920 2920 2920 2920 2919 2919 2919 2919 2919 2918 2918 2918 2918 2917 2917 2917 2918 2918 2918 2919 2919 2919 2919 2919 2920 2920
2950 2949 2947 2946 2945 2944 2944 2943 2942 2941 2940 2939 2938 2937 2937 2936 2935 2935 2934 2934 2934 2934 2933 2933 2933 2932 2932 2932 2931 2931 2931 2930 2929 2929 2928 2928 2927 2926 2926 2925 2924 2924 2923 2923 2922 2922 2921 2921 2921 2920 2920 2920 2919 2919 2919 2918 2918 2918 2918 2918 2917 2917 2917 2917 2917 2916 2916 2916 2915 2915 2915 2914 2914 2914 2914 2914 2914 2914 2915 2915 2916 2916 2916 2917 2917 2917
2946 2945 2944 2943 2942 2941 2940 2939 2939 2938 2937 2935 2934 2934 2934 2934 2933 2933 2933 2932 2932 2932 2931 2931 2930 2930 2930 2929 2929 2929 2928 2928 2927 2926 2926 2925 2924 2924 2923 2922 2922 2921 2921 2920 2919 2919 2919 2918 2918 2918 2917 2917 2916 2916 2916 2915 2915 2915 2915 2914 2914 2914 2914 2914 2914 2913 2913 2913 2912 2912 2912 2911 2911 2911 2911 2911 2911 2911 2911 2912 2912 2913 2913 2914 2914 2913
2943 2942 2941 2940 2939 2938 2937 2936 2936 2935 2934 2932 2931 2930 2931 2931 2931 2931 2931 2930 2930 2929 2929 2929 2928 2928 2928 2927 2927 2926 2926 2925 2924 2924 2923 2922 2922 2921 2920 2920 2919 2919 2918 2918 2917 2917 2916 2916 2915 2915 2915 2914 2914 2914 2913 2913 2913 2912 2912 2912 2911 2911 2911 2911 2910 2910 2910 2909 2909 2909 2909 2909 2908 2908 2908 2908 2908 2908 2908 2908 2909 2909 2909 2909 2909 2909
2940 2939 2938 2937 2936 2935 2934 2933 2933 2933 2932 2930 2929 2928 2928 2928 2928 2928 2928 2928 2927 2927 2926 2926 2925 2925 2926 2925 2924 2924 2923 2923 2922 2921 2921 2920 2919 2919 2918 2918 2917 2916 2916 2916 2915 2915 2914 2914 2913 2913 2912 2912 2911 2911 2911 2910 2910 2910 2909 2909 2909 2909 2908 2908 2908 2908 2907 2907 2907 2906 2906 2906 2905 2905 2905 2904 2904 2904 2904 2905 2905 2905 2905 2905 2905 2905
2937 2936 2935 2934 2933 2932 2932 2930 2930 2930 2930 2929 2927 2927 2926 2926 2925 2925 2925 2925 2925 2925 2924 2923 2923 2923 2923 2923 2922 2921 2921 2920 2919 2919 2918 2918 2917 2917 2916 2915 2915 2914 2914 2914 2913 2913 2912 2912 2911 2911 2910 2909 2909 2909 2909 2908 2908 2907 2907 2907 2906 2906 2906 2905 2905 2905 2904 2904 2904 2904 2903 2903 2903 2902 2902 2902 2902 2901 2901 2901 2901 2901 2901 2901 2901 2901
2934 2933 2933 2931 2930 2930 2929 2929 2928 2928 2928 2927 2926 2925 2925 2924 2923 2922 2921 2922 2922 2922 2922 2921 2920 2920 2920 2920 2920 2919 2918 2918 2917 2917 2916 2915 2915 2914 2914 2913 2913 2913 2912 2912 2911 2911 2910 2910 2909 2908 2908 2907 2907 2906 2906 2906 2905 2905 2905 2904 2904 2904 2903 2903 2903 2902 2902 2902 2901 2901 2901 2900 2900 2900 2899 2899 2899 2898 2898 2898 2897 2897 2897 2897 2897 2897
2931 2931 2930 2929 2928 2928 2927 2927 2926 2926 2925 2925 2924 2923 2923 2923 2922 2920 2919 2919 2919 2919 2919 2919 2918 2918 2918 2917 2917 2916 2916 2915 2914 2914 2914 2914 2913 2912 2912 2911 2911 2910 2910 2909 2909 2909 2908 2907 2907 2906 2905 2905 2904 2904 2904 2903 2903 2903 2902 2902 2901 2901 2901 2900 2900 2900 2899 2899 2899 2899 2898 2898 2898 2897 2897 2896 2896 2895 2895 2894 2894 2893 2893 2893 2893 2893
2929 2928 2927 2926 2926 2926 2925 2925 2924 2924 2924 2923 2922 2921 2920 2920 2919 2918 2917 2916 2916 2916 2916 2916 2915 2916 2916 2915 2914 2914 2913 2913 2912 2912 2912 2912 2911 2910 2910 2909 2909 2909 2908 2908 2907 2907 2906 2905 2904 2904 2904 2903 2902 2902 2902 2901 2901 2900 2900 2899 2899 2899 2898 2898 2898 2897 2897 2897 2896 2896 2896 2895 2895 2895 2894 2894 2893 2893 2892 2891 2891 2890 2890 2889 2889 2889
2926 2925 2924 2924 2923 2923 2923 2923 2922 2921 2921 2921 2920 2919 2918 2917 2917 2916 2915 2914 2914 2914 2914 2913 2913 2914 2914 2914 2913 2912 2911 2910 2910 2910 2910 2910 2909 2909 2908 2908 2908 2907 2907 2906 2906 2905 2904 2904 2903 2902 2902 2901 2900 2900 2899 2899 2899 2898 2898 2897 2897 2896 2896 2896 2895 2895 2895 2894 2894 2894 2894 2893 2893 2892 2892 2891 2890 2890 2889 2889 2888 2887 2887 2886 2886 2886
2923 2923 2922 2921 2920 2920 2921 2920 2920 2919 2919 2919 2918 2917 2916 2915 2915 2914 2914 2913 2912 2912 2912 2911 2911 2911 2912 2912 2911 2910 2909 2908 2908 2908 2908 2908 2908 2907 2906 2906 2906 2906 2905 2905 2905 2904 2903 2902 2901 2901 2900 2899 2899 2898 2898 2897 2896 2896 2896 2895 2895 2894 2894 2894 2894 2893 2893 2892 2892 2892 2891 2891 2890 2890 2889 2889 2888 2887 2887 2886 2885 2884 2884 2883 2883 2882
2922 2921 2920 2919 2918 2918 2919 2919 2918 2917 2916 2916 2916 2915 2914 2913 2913 2913 2912 2911 2910 2910 2909 2909 2909 2909 2909 2910 2909 2908 2907 2906 2906 2906 2906 2906 2906 2906 2904 2904 2904 2904 2904 2904 2903 2903 2902 2901 2900 2899 2899 2898 2897 2896 2896 2895 2894 2894 2894 2893 2893 2893 2892 2892 2892 2891 2891 2890 2890 2889 2889 2889 2888 2887 2887 2886 2885 2885 2884 2883 2883 2882 2881 2880 2880 2879
2920 2919 2918 2917 2916 2916 2916 2916 2916 2915 2914 2914 2914 2913 2913 2912 2911 2911 2910 2909 2909 2908 2908 2907 2906 2906 2906 2907 2908 2907 2905 2904 2904 2904 2904 2904 2905 2904 2903 2902 2902 2902 2902 2902 2902 2901 2900 2899 2899 2898 2897 2896 2895 2894 2894 2893 2892 2892 2891 2891 2891 2890 2890 2890 2889 2889 2889 2888 2888 2887 2887 2886 2886 2885 2884 2884 2883 2882 2882 2881 2880 2879 2879 2878 2877 2876
2919 2918 2917 2916 2915 2915 2914 2914 2914 2913 2912 2912 2911 2911 2910 2909 2909 2909 2908 2908 2907 2906 2905 2905 2904 2904 2904 2904 2905 2905 2903 2902 2901 2900 2901 2902 2902 2902 2902 2901 2900 2900 2900 2900 2900 2899 2899 2898 2897 2896 2895 2894 2894 2893 2892 2891 2890 2890 2889 2889 2889 2888 2888 2888 2887 2887 2886 2886 2885 2885 2884 2884 2883 2883 2882 2882 2881 2880 2879 2878 2878 2877 2876 2875 2874 2874
2917 2917 2917 2915 2914 2913 2912 2912 2911 2911 2910 2909 2909 2908 2907 2907 2907 2906 2906 2905 2905 2904 2903 2902 2902 2902 2902 2902 2903 2903 2902 2900 2898 2898 2898 2899 2899 2899 2899 2898 2898 2898 2898 2898 2898 2897 2896 2896 2895 2894 2894 2893 2892 2891 2890 2889 2889 2888 2887 2887 2886 2886 2885 2885 2885 2884 2884 2884 2883 2883 2882 2882 2881 2880 2880 2879 2879 2878 2877 2876 2875 2874 2873 2873 2872 2871
2915 2915 2915 2914 2913 2911 2910 2909 2909 2909 2908 2907 2907 2906 2905 2904 2904 2904 2903 2903 2902 2902 2901 2900 2899 2899 2899 2899 2900 2900 2900 2898 2896 2895 2894 2895 2896 2897 2897 2896 2895 2895 2895 2895 2896 2895 2894 2894 2893 2893 2892 2891 2890 2889 2888 2887 2886 2886 2885 2885 2884 2884 2883 2883 2883 2882 2882 2881 2881 2881 2880 2879 2879 2878 2878 2877 2876 2875 2875 2874 2873 2872 2871 2870 2869 2868
2914 2913 2912 2911 2910 2909 2907 2907 2906 2906 2906 2905 2904 2904 2903 2902 2902 2901 2901 2900 2900 2899 2899 2898 2897 2897 2897 2897 2897 2897 2898 2896 2894 2893 2892 2892 2893 2894 2894 2893 2892 2892 2892 2893 2893 2893 2892 2891 2891 2890 2890 2889 2888 2887 2886 2885 2884 2884 2883 2883 2882 2882 2881 2881 2880 2880 2879 2879 2879 2878 2878 2877 2877 2876 2875 2875 2874 2873 2872 2872 2871 2869 2869 2868 2867 2866
2912 2910 2909 2909 2907 2906 2905 2904 2904 2904 2904 2903 2902 2901 2900 2900 2899 2899 2898 2898 2897 2896 2896 2895 2894 2894 2894 2894 2894 2894 2895 2894 2892 2890 2889 2888 2889 2890 2891 2890 2889 2889 2889 2890 2891 2890 2890 2889 2889 2889 2888 2887 2886 2885 2884 2883 2882 2881 2881 2880 2880 2879 2879 2879 2878 2878 2877 2877 2877 2876 2876 2875 2874 2874 2874 2873 2872 2871 2870 2869 2868 2867 2866 2865 2864 2864
2909 2907 2906 2905 2904 2903 2902 2901 2901 2901 2901 2901 2900 2899 2899 2898 2897 2896 2895 2895 2894 2893 2892 2892 2891 2891 2891 2891 2891 2892 2892 2891 2890 2889 2887 2885 2885 2886 2888 2887 2886 2886 2887 2888 2888 2888 2887 2887 2887 2886 2886 2885 2884 2883 2882 2881 2880 2879 2879 2878 2878 2877 2877 2876 2876 2875 2875 2875 2874 2874 2873 2873 2872 2872 2871 2870 2869 2869 2868 2867 2866 2865 2864 2863 2862 2861
2906 2904 2903 2902 2901 2900 2899 2899 2899 2899 2899 2899 2898 2898 2897 2896 2896 2894 2894 2893 2892 2891 2889 2889 2888 2887 2887 2888 2888 2888 2889 2889 2888 2886 2884 2882 2881 2883 2884 2884 2883 2883 2884 2884 2885 2885 2884 2884 2884 2884 2884 2883 2883 2881 2880 2879 2879 2878 2877 2876 2875 2875 2874 2874 2874 2873 2873 2872 2872 2871 2871 2870 2870 2869 2869 2868 2867 2867 2866 2865 2864 2863 2862 2861 2860 2859
2904 2903 2901 2900 2899 2898 2898 2898 2897 2897 2896 2896 2895 2894 2894 2894 2893 2893 2892 2891 2890 2889 2888 2887 2885 2884 2883 2884 2884 2884 2885 2885 2885 2884 2882 2879 2878 2879 2880 2881 2881 2880 2881 2882 2882 2882 2881 2881 2882 2882 2882 2881 2880 2879 2879 2878 2876 2876 2875 2874 2874 2873 2872 2872 2871 2871 2870 2870 2869 2869 2869 2868 2868 2867 2867 2866 2865 2864 2864 2863 2862 2861 2860 2859 2858 2857
2903 2901 2899 2897 2896 2896 2896 2895 2894 2894 2893 2892 2891 2891 2890 2890 2889 2889 2889 2888 2888 2887 2886 2884 2882 2881 2880 2880 2880 2881 2881 2882 2881 2880 2879 2877 2876 2876 2877 2878 2878 2878 2878 2879 2879 2879 2879 2879 2879 2879 2879 2879 2878 2877 2876 2875 2874 2874 2873 2872 2871 2871 2870 2869 2869 2868 2868 2868 2867 2867 2866 2866 2865 2865 2864 2864 2863 2862 2861 2861 2860 2859 2858 2857 2856 2855
2898 2896 2894 2894 2893 2893 2892 2891 2890 2890 2890 2889 2889 2888 2887 2886 2886 2885 2885 2884 2884 2884 2883 2881 2879 2878 2877 2877 2877 2877 2878 2878 2878 2877 2876 2875 2874 2873 2874 2875 2875 2875 2875 2875 2876 2876 2876 2876 2876 2877 2877 2876 2876 2875 2874 2874 2873 2872 2871 2870 2869 2869 2868 2867 2867 2866 2865 2865 2865 2864 2864 2864 2863 2863 2862 2861 2861 2860 2859 2859 2858 2857 2856 2855 2854 2853
2893 2892 2892 2891 2890 2889 2889 2888 2888 2887 2887 2887 2886 2885 2884 2883 2883 2882 2881 2881 2881 2880 2879 2878 2876 2875 2874 2874 2874 2874 2875 2875 2875 2874 2874 2873 2871 2870 2871 2872 2872 2872 2872 2872 2872 2872 2873 2873 2873 2874 2874 2874 2873 2873 2872 2871 2870 2870 2869 2868 2867 2867 2866 2865 2864 2864 2863 2863 2862 2862 2862 2861 2861 2860 2860 2859 2859 2858 2858 2857 2856 2855 2854 2853 2852 2851
2890 2889 2889 2888 2888 2887 2886 2886 2885 2885 2884 2884 2884 2883 2882 2881 2880 2879 2878 2878 2877 2877 2875 2874 2874 2873 2871 2871 2870 2871 2871 2872 2872 2871 2870 2869 2868 2867 2868 2869 2869 2869 2869 2868 2867 2868 2869 2869 2870 2870 2871 2871 2871 2870 2870 2869 2868 2868 2867 2866 2865 2865 2864 2863 2862 2861 2861 2860 2860 2859 2859 2859 2858 2858 2858 2857 2857 2856 2855 2855 2854 2853 2852 2851 2850 2849
2887 2885 2885 2885 2884 2884 2883 2883 2882 2882 2881 2881 2881 2880 2879 2879 2877 2876 2875 2874 2874 2873 2872 2871 2870 2870 2869 2868 2868 2867 2867 2868 2868 2868 2868 2866 2865 2864 2864 2864 2865 2865 2865 2864 2863 2863 2864 2865 2867 2867 2867 2868 2868 2868 2867 2867 2866 2865 2865 2864 2863 2863 2862 2861 2860 2859 2859 2858 2858 2857 2857 2856 2856 2856 2855 2855 2854 2854 2853 2853 2852 2851 2850 2849 2848 2847
2883 2881 2880 2880 2881 2881 2880 2879 2879 2878 2878 2878 2877 2877 2876 2875 2874 2874 2872 2871 2870 2869 2869 2868 2867 2867 2866 2866 2865 2864 2864 2864 2865 2865 2865 2864 2862 2861 2861 2861 2861 2861 2861 2861 2859 2858 2858 2860 2862 2864 2864 2864 2864 2864 2864 2864 2864 2863 2862 2862 2861 2860 2859 2859 2858 2857 2856 2856 2855 2855 2854 2854 2854 2854 2853 2853 2852 2852 2851 2851 2850 2849 2848 2847 2847 2846
2879 2878 2877 2877 2877 2877 2876 2876 2875 2875 2874 2874 2874 2873 2873 2872 2871 2870 2869 2868 2867 2866 2865 2864 2864 2863 2863 2863 2862 2861 2861 2861 2862 2862 2862 2860 2859 2858 2858 2857 2857 2857 2857 2857 2856 2854 2854 2854 2856 2859 2859 2860 2860 2860 2861 2861 2860 2860 2859 2859 2859 2858 2857 2856 2855 2854 2854 2853 2853 2853 2852 2852 2852 2851 2851 2850 2850 2850 2849 2849 2848 2847 2846 2846 2845 2844
2875 2875 2874 2874 2874 2873 2873 2872 2872 2871 2870 2870 2869 2869 2869 2868 2868 2867 2866 2865 2864 2863 2861 2861 2860 2859 2859 2859 2858 2858 2858 2859 2859 2859 2858 2857 2855 2854 2854 2854 2854 2853 2853 2853 2852 2851 2850 2850 2851 2853 2854 2855 2856 2856 2857 2857 2857 2857 2856 2856 2856 2855 2855 2854 2853 2852 2852 2851 2851 2850 2850 2850 2849 2849 2849 2849 2848 2848 2848 2847 2846 2846 2845 2844 2843 2842
2872 2871 2871 2870 2870 2869 2869 2868 2868 2867 2866 2865 2865 2864 2864 2864 2863 2863 2862 2861 2860 2859 2858 2857 2856 2856 2855 2854 2854 2854 2854 2855 2856 2856 2855 2854 2853 2851 2850 2850 2850 2849 2849 2849 2849 2848 2847 2847 2847 2848 2849 2850 2851 2852 2853 2853 2853 2853 2853 2853 2853 2853 2852 2851 2850 2850 2849 2849 2849 2848 2848 2848 2847 2847 2847 2847 2846 2846 2846 2845 2845 2844 2843 2842 2841 2840
2868 2868 2867 2867 2866 2865 2864 2864 2863 2863 2862 2861 2861 2860 2859 2859 2859 2858 2858 2857 2856 2855 2854 2853 2853 2852 2851 2850 2850 2850 2850 2852 2852 2853 2852 2851 2849 2848 2847 2846 2846 2846 2846 2845 2845 2844 2843 2842 2843 2843 2843 2844 2845 2847 2849 2849 2850 2850 2850 2849 2849 2849 2849 2848 2848 2847 2847 2847 2846 2846 2846 2846 2845 2845 2845 2845 2845 2844 2844 2844 2843 2843 2842 2841 2840 2839
2864 2864 2864 2863 2862 2861 2860 2860 2859 2859 2858 2857 2856 2856 2855 2854 2854 2853 2853 2852 2852 2851 2850 2849 2849 2848 2848 2847 2846 2846 2846 2847 2848 2849 2848 2847 2846 2844 2843 2842 2842 2843 2843 2842 2841 2841 2840 2839 2839 2839 2839 2839 2840 2842 2844 2845 2846 2846 2846 2847 2846 2846 2846 2845 2845 2845 2844 2844 2844 2844 2844 2844 2844 2843 2843 2843 2843 2843 2843 2842 2842 2841 2840 2839 2839 2838
2861 2861 2860 2859 2859 2858 2857 2856 2855 2854 2854 2853 2852 2852 2851 2850 2849 2849 2848 2848 2847 2847 2846 2846 2845 2844 2844 2843 2843 2842 2842 2842 2843 2844 2843 2843 2842 2841 2839 2838 2838 2839 2839 2839 2838 2838 2838 2837 2836 2836 2836 2835 2836 2837 2839 2841 2842 2842 2843 2843 2843 2843 2843 2843 2843 2842 2842 2842 2842 2842 2842 2842 2841 2841 2841 2841 2841 2841 2841 2841 2840 2839 2839 2838 2837 2837
2859 2858 2857 2856 2855 2854 2853 2852 2851 2851 2850 2849 2848 2847 2847 2846 2845 2844 2844 2844 2843 2843 2842 2842 2841 2840 2840 2839 2839 2838 2838 2838 2838 2839 2838 2838 2837 2836 2835 2834 2834 2834 2835 2835 2834 2834 2834 2834 2833 2832 2832 2832 2832 2834 2835 2837 2838 2838 2839 2839 2840 2840 2840 2840 2840 2840 2840 2840 2840 2840 2840 2839 2839 2839 2840 2840 2840 2840 2840 2839 2839 2838 2838 2837 2836 2836
2855 2854 2854 2853 2852 2851 2849 2849 2848 2847 2846 2845 2844 2843 2843 2842 2841 2840 2840 2839 2839 2838 2838 2837 2837 2836 2836 2835 2834 2834 2834 2834 2834 2834 2833 2833 2832 2831 2830 2830 2829 2829 2830 2830 2830 2830 2830 2829 2829 2829 2829 2829 2829 2830 2832 2833 2834 2835 2835 2836 2836 2837 2838 2838 2838 2838 2838 2838 2838 2838 2838 2838 2838 2838 2838 2838 2839 2839 2838 2838 2838 2837 2836 2836 2835 2835
2852 2851 2850 2849 2849 2847 2846 2845 2844 2843 2842 2841 2840 2839 2839 2838 2837 2836 2836 2835 2835 2834 2834 2833 2832 2832 2831 2831 2831 2831 2830 2830 2829 2829 2829 2828 2827 2827 2826 2825 2825 2825 2825 2826 2826 2826 2826 2825 2825 2825 2826 2826 2826 2827 2828 2829 2830 2831 2832 2833 2833 2834 2834 2835 2835 2835 2836 2836 2836 2835 2835 2836 2836 2836 2837 2837 2837 2837 2837 2837 2836 2836 2835 2835 2834 2834
2849 2848 2847 2846 2845 2844 2843 2841 2840 2839 2838 2837 2837 2836 2835 2834 2833 2833 2832 2832 2831 2831 2830 2829 2828 2828 2828 2828 2827 2827 2827 2826 2825 2825 2824 2824 2823 2822 2822 2822 2821 2821 2821 2821 2821 2822 2822 2822 2822 2822 2822 2823 2824 2824 2825 2826 2827 2828 2829 2830 2830 2831 2832 2832 2833 2833 2834 2834 2834 2834 2834 2834 2834 2834 2835 2835 2835 2835 2835 2835 2835 2835 2834 2834 2833 2833
2846 2845 2844 2843 2842 2840 2839 2838 2837 2836 2835 2834 2834 2833 2832 2831 2830 2829 2829 2828 2828 2827 2827 2826 2825 2824 2824 2824 2824 2824 2824 2823 2822 2821 2820 2820 2819 2819 2819 2818 2818 2818 2818 2818 2818 2818 2819 2819 2819 2819 2819 2820 2821 2821 2822 2823 2824 2825 2826 2827 2828 2828 2829 2830 2830 2831 2831 2831 2831 2831 2832 2832 2832 2833 2833 2834 2834 2834 2834 2834 2834 2834 2833 2833 2832 2832
2844 2842 2841 2840 2839 2838 2837 2836 2835 2834 2833 2832 2831 2830 2829 2828 2827 2826 2826 2825 2825 2824 2823 2823 2822 2821 2821 2821 2821 2821 2821 2820 2819 2818 2817 2817 2816 2816 2816 2816 2816 2816 2816 2816 2816 2816 2816 2817 2817 2817 2817 2818 2818 2819 2819 2820 2821 2823 2824 2824 2825 2826 2827 2827 2828 2829 2829 2829 2829 2829 2830 2830 2830 2831 2831 2832 2832 2832 2832 2832 2832 2832 2832 2831 2831 2830
2841 2839 2839 2837 2836 2835 2834 2834 2833 2832 2831 2830 2829 2828 2827 2826 2825 2824 2824 2823 2822 2821 2820 2820 2819 2819 2819 2818 2818 2818 2818 2817 2817 2816 2815 2814 2814 2814 2814 2814 2814 2814 2814 2814 2814 2814 2814 2814 2814 2814 2815 2816 2816 2817 2818 2819 2820 2821 2822 2822 2823 2824 2824 2825 2826 2826 2827 2827 2827 2828 2828 2828 2829 2829 2830 2830 2830 2831 2831 2831 2831 2831 2830 2830 2830 2829
2838 2837 2836 2835 2834 2833 2833 2832 2831 2830 2829 2829 2828 2826 2825 2824 2823 2822 2821 2821 2820 2819 2818 2817 2817 2816 2816 2816 2815 2815 2815 2815 2814 2814 2813 2813 2812 2812 2812 2812 2812 2812 2812 2812 2812 2812 2812 2812 2812 2813 2814 2814 2815 2815 2816 2817 2818 2819 2820 2820 2821 2822 2823 2823 2824 2824 2825 2825 2825 2826 2826 2826 2827 2828 2828 2828 2829 2829 2829 2829 2829 2829 2829 2829 2829 2828
2836 2835 2834 2833 2832 2832 2831 2830 2829 2829 2828 2827 2826 2825 2824 2823 2822 2821 2820 2819 2818 2817 2816 2816 2815 2814 2814 2813 2813 2813 2813 2813 2813 2812 2812 2811 2811 2810 2810 2810 2810 2810 2810 2810 2810 2811 2811 2811 2811 2812 2812 2813 2813 2814 2814 2815 2816 2817 2818 2819 2819 2820 2821 2821 2822 2822 2823 2823 2823 2824 2824 2824 2825 2826 2826 2827 2827 2827 2828 2828 2828 2828 2828 2828 2828 2827
2834 2833 2832 2832 2831 2830 2829 2829 2828 2827 2826 2825 2824 2824 2823 2821 2820 2819 2819 2818 2817 2816 2815 2814 2814 2813 2812 2812 2811 2811 2811 2811 2810 2810 2810 2810 2809 2809 2809 2809 2808 2809 2809 2809 2809 2809 2809 2810 2810 2811 2811 2812 2812 2812 2813 2814 2814 2815 2816 2817 2818 2819 2819 2820 2820 2820 2820 2821 2821 2822 2822 2823 2824 2824 2825 2825 2825 2826 2826 2826 2827 2827 2827 2827 2826 2826
2832 2831 2831 2830 2829 2829 2828 2827 2826 2825 2825 2824 2823 2822 2821 2820 2819 2818 2817 2817 2816 2815 2814 2814 2813 2812 2811 2810 2810 2809 2809 2809 2809 2809 2808 2808 2808 2808 2807 2807 2807 2807 2807 2807 2808 2808 2808 2809 2809 2809 2810 2810 2810 2810 2811 2812 2813 2814 2815 2816 2816 2817 2818 2818 2818 2818 2818 2819 2819 2820 2820 2821 2822 2823 2823 2824 2824 2824 2824 2825 2825 2825 2825 2825 2825 2825
2830 2829 2829 2828 2828 2827 2826 2826 2825 2824 2824 2823 2822 2821 2820 2819 2818 2817 2816 2815 2814 2814 2813 2812 2812 2811 2810 2809 2809 2809 2808 2808 2807 2807 2807 2806 2806 2806 2806 2805 2805 2805 2806 2806 2806 2806 2807 2807 2807 2808 2808 2809 2809 2809 2810 2811 2812 2813 2813 2814 2814 2815 2815 2816 2816 2816 2816 2817 2817 2818 2819 2819 2820 2821 2822 2822 2823 2823 2823 2823 2824 2824 2824 2824 2824 2824
2829 2828 2827 2827 2826 2826 2825 2824 2824 2823 2822 2822 2821 2820 2819 2818 2817 2816 2815 2814 2814 2813 2812 2811 2810 2810 2809 2809 2808 2808 2807 2806 2806 2806 2805 2805 2804 2804 2804 2804 2804 2804 2804 2804 2804 2805 2805 2805 2806 2806 2806 2807 2808 2808 2809 2809 2810 2811 2812 2812 2813 2813 2814 2814 2814 2814 2815 2815 2816 2816 2817 2818 2819 2819 2820 2821 2821 2821 2822 2822 2822 2822 2823 2823 2823 2823
2827 2827 2826 2825 2825 2824 2824 2823 2823 2822 2821 2820 2819 2819 2818 2817 2816 2815 2814 2813 2812 2812 2811 2810 2809 2809 2809 2808 2807 2807 2806 2806 2805 2805 2804 2804 2803 2803 2802 2802 2802 2802 2803 2803 2803 2803 2804 2804 2804 2804 2805 2806 2806 2807 2807 2808 2809 2809 2810 2810 2811 2811 2811 2812 2812 2813 2813 2814 2814 2815 2816 2816 2817 2818 2819 2819 2819 2820 2820 2820 2820 2821 2821 2822 2822 2822